Location: Beutels
(47.8767°N, 9.8584°E)
Time: 20:02:12
(UTC+00:00)

Cosmos 1470 - Pass Details

Date: 19 May 2025
Orbit: 455 x 466 km, 82.5° (Epoch: 20 June)

Event Time Altitude Azimuth Distance (km) Brightness Sun altitude
Rises 23:04:01 0° 346° (NNW) 2,519 7.6 -22.1°
Reaches altitude 10° 23:06:08 10° 341° (NNW) 1,638 6.3 -22.1°
Enters shadow 23:09:18 49° 286° (WNW) 616 3.1 -22.1°
